Flight Track Log - Related Links

Times and Time Zones

All times are in EDT time to prevent confusion due to time zone crossing. See the AAY875 flight status page for this flight to view local times or setup timezone preferences in your user account.


Time Position Orientation Groundspeed Altitude Reporting Facility
EDT Latitude Longitude Course Direction KTS MPH feet Rate Location/Type
Mon 07:20:40 PM 44.8063 -68.8262 315° West 145 167  Level FlightAware ADS-B (EGCB)
Mon 07:21:00 PM 44.8086 -68.8298 314° West 166 191 700 2,308 Climbing FlightAware ADS-B (EGCB)
Mon 07:21:19 PM 44.8269 -68.8559 314° West 168 193 1,500 2,000 Climbing FlightAware ADS-B (EGCB)
Mon 07:21:30 PM 44.8324 -68.8655 301° West 180 207 1,700 1,500 Climbing FlightAware ADS-B (EGCB)
Mon 07:21:39 PM 44.8354 -68.8753 281° West 192 221 2,000 1,579 Climbing FlightAware ADS-B (EGCB)
Mon 07:21:49 PM 44.8355 -68.8885 253° West 206 237 2,200 1,125 Climbing FlightAware ADS-B (EGCB)
Mon 07:21:55 PM 44.8334 -68.8960 237° Southwest 215 247 2,300 545 Climbing FlightAware ADS-B
Mon 07:22:00 PM 44.8307 -68.9012 228° Southwest 222 255 2,300 1,091 Level FlightAware ADS-B (EGCB)
Mon 07:22:17 PM 44.8167 -68.9186 216° Southwest 251 289 2,700 1,784 Climbing FlightAware ADS-B (EGCB)
Mon 07:22:37 PM 44.7963 -68.9386 214° Southwest 270 311 3,400 2,368 Climbing FlightAware ADS-B (EGCB)
Mon 07:22:55 PM 44.7778 -68.9555 212° Southwest 274 315 4,200 3,600 Climbing FlightAware ADS-B
Mon 07:23:02 PM 44.7699 -68.9625 213° Southwest 276 318 4,900 3,391 Climbing FlightAware ADS-B
Mon 07:23:18 PM 44.7523 -68.9783 213° Southwest 276 318 5,500 2,743 Climbing FlightAware ADS-B (EGCB)
Mon 07:23:37 PM 44.7328 -68.9964 214° Southwest 276 318 6,500 3,220 Climbing FlightAware ADS-B
Mon 07:23:59 PM 44.7093 -69.0198 216° Southwest 273 314 7,700 3,000 Climbing FlightAware ADS-B (EGCB)
Mon 07:24:19 PM 44.6890 -69.0408 217° Southwest 276 318 8,600 2,833 Climbing FlightAware ADS-B
Mon 07:24:35 PM 44.6725 -69.0582 217° Southwest 282 325 9,400 2,316 Climbing FlightAware ADS-B
Mon 07:25:16 PM 44.6273 -69.1042 216° Southwest 310 357 10,800 1,714 Climbing FlightAware ADS-B (EGCB)
Mon 07:25:31 PM 44.6094 -69.1219 215° Southwest 337 388 11,000 1,304 Climbing FlightAware ADS-B (EGCB)
Mon 07:26:02 PM 44.5694 -69.1615 215° Southwest 356 410 11,800 2,190 Climbing FlightAware ADS-B
Mon 07:26:34 PM 44.5272 -69.2023 215° Southwest 355 409 13,300 2,451 Climbing FlightAware ADS-B
Mon 07:27:13 PM 44.4727 -69.2559 216° Southwest 370 426 14,700 2,357 Climbing FlightAware ADS-B
Mon 07:27:58 PM 44.4107 -69.3194 216° Southwest 370 426 16,600 2,250 Climbing FlightAware ADS-B
Mon 07:28:33 PM 44.3626 -69.3681 216° Southwest 378 435 17,700 2,123 Climbing FlightAware ADS-B
Mon 07:29:03 PM 44.3183 -69.4123 216° Southwest 381 438 18,900 1,890 Climbing FlightAware ADS-B
Mon 07:29:46 PM 44.2562 -69.4736 215° Southwest 392 451 20,000 1,806 Climbing FlightAware ADS-B
Mon 07:30:46 PM 44.1668 -69.5622 215° Southwest 395 455 22,000 1,898 Climbing FlightAware ADS-B
Mon 07:31:24 PM 44.1100 -69.6180 215° Southwest 489 563 23,100 1,826 Climbing FlightAware ADS-B (KASH)
Mon 07:31:32 PM 44.0980 -69.6298 215° Southwest 403 464 23,400 1,500 Climbing FlightAware ADS-B
Mon 07:32:12 PM 44.0360 -69.6906 215° Southwest 410 472 24,300 1,553 Climbing FlightAware ADS-B (KASH)
Mon 07:32:57 PM 43.9660 -69.7588 215° Southwest 412 474 25,600 1,579 Climbing FlightAware ADS-B (KASH)
Mon 07:33:28 PM 43.9173 -69.8063 215° Southwest 417 480 26,300 1,397 Climbing FlightAware ADS-B (KASH)
Mon 07:34:10 PM 43.8504 -69.8717 216° Southwest 414 476 27,300 1,421 Climbing FlightAware ADS-B (KASH)
Mon 07:34:44 PM 43.7972 -69.9231 216° Southwest 417 480 28,100 1,352 Climbing FlightAware ADS-B (KASH)
Mon 07:35:21 PM 43.7378 -69.9806 215° Southwest 426 490 28,900 1,333 Climbing FlightAware ADS-B (NHT / EGWU)
Mon 07:35:29 PM 43.7250 -69.9929 215° Southwest 425 489 29,100 947 Climbing FlightAware ADS-B (NHT / EGWU)
Mon 07:35:59 PM 43.6750 -70.0412 215° Southwest 432 497 29,500 800 Climbing FlightAware ADS-B (KASH)
Mon 07:36:29 PM 43.6261 -70.0886 216° Southwest 432 497 29,900 938 Climbing FlightAware ADS-B (KASH)
Mon 07:37:03 PM 43.5744 -70.1380 215° Southwest 440 506 30,500 1,313 Climbing FlightAware ADS-B (NHT / EGWU)
Mon 07:37:33 PM 43.5196 -70.1902 215° Southwest 436 502 31,300 1,645 Climbing FlightAware ADS-B (NHT / EGWU)
Mon 07:38:05 PM 43.4672 -70.2403 215° Southwest 429 494 32,200 1,619 Climbing FlightAware ADS-B (NHT / EGWU)
Mon 07:38:36 PM 43.4159 -70.2894 215° Southwest 423 487 33,000 1,455 Climbing FlightAware ADS-B (NHT / EGWU)
Mon 07:39:11 PM 43.3608 -70.3419 215° Southwest 411 473 33,800 1,324 Climbing FlightAware ADS-B (KASH)
Mon 07:39:44 PM 43.3081 -70.3920 215° Southwest 412 474 34,500 1,114 Climbing FlightAware ADS-B (KASH)
Mon 07:40:21 PM 43.2744 -70.4240 215° Southwest 410 472 35,100 800 Climbing FlightAware ADS-B (NHT / EGWU)
Mon 07:40:59 PM 43.1902 -70.5038 215° Southwest 413 475 35,500 667 Climbing FlightAware ADS-B (KASH)
Mon 07:41:33 PM 43.1383 -70.5529 215° Southwest 416 479 35,900 405 Climbing FlightAware ADS-B (NHT / EGWU)
Mon 07:42:13 PM 43.0741 -70.6131 215° Southwest 412 474 36,000 85 Climbing FlightAware ADS-B (NHT / EGWU)
Mon 07:42:44 PM 43.0258 -70.6588 215° Southwest 412 474 36,000  Level FlightAware ADS-B (KASH)
Mon 07:43:18 PM 42.9719 -70.7094 215° Southwest 414 476 36,000  Level FlightAware ADS-B (NHT / EGWU)
Mon 07:43:48 PM 42.9268 -70.7514 214° Southwest 412 474 36,000  Level FlightAware ADS-B (NHT / EGWU)
Mon 07:44:23 PM 42.8707 -70.8039 215° Southwest 411 473 36,000  Level FlightAware ADS-B (NHT / EGWU)
Mon 07:44:53 PM 42.8221 -70.8492 215° Southwest 411 473 36,000  Level FlightAware ADS-B (NHT / EGWU)
Mon 07:45:24 PM 42.7759 -70.8945 218° Southwest 407 468 36,000  Level FlightAware ADS-B (NHT / EGWU)
Mon 07:45:44 PM 42.7457 -70.9279 220° Southwest 400 460 36,000  Level FlightAware ADS-B (KASH)
Mon 07:46:14 PM 42.7029 -70.9753 220° Southwest 402 463 36,000  Level FlightAware ADS-B (KASH)
Mon 07:46:44 PM 42.6580 -71.0235 218° Southwest 410 472 36,000  Level FlightAware ADS-B (NHT / EGWU)
Mon 07:47:15 PM 42.6115 -71.0731 218° Southwest 411 473 36,000 85 Level FlightAware ADS-B (NHT / EGWU)
Mon 07:47:55 PM 42.5549 -71.1330 218° Southwest 410 472 36,100 83 Climbing FlightAware ADS-B (NHT / EGWU)
Mon 07:48:27 PM 42.5041 -71.1869 218° Southwest 410 472 36,100 -97 Level FlightAware ADS-B (NHT / EGWU)
Mon 07:48:57 PM 42.4607 -71.2324 218° Southwest 408 470 36,000 -97 Descending FlightAware ADS-B (NHT / EGWU)
Mon 07:49:29 PM 42.4108 -71.2853 218° Southwest 408 470 36,000  Level FlightAware ADS-B (NHT / EGWU)
Mon 07:50:00 PM 42.3661 -71.3320 218° Southwest 408 470 36,000  Level FlightAware ADS-B (NHT / EGWU)
Mon 07:50:34 PM 42.3171 -71.3835 218° Southwest 408 470 36,000  Level FlightAware ADS-B (NHT / EGWU)
Mon 07:51:12 PM 42.2595 -71.4442 218° Southwest 411 473 36,000  Level FlightAware ADS-B (KOWD)
Mon 07:51:42 PM 42.2251 -71.4799 218° Southwest 411 473 36,000  Level FlightAware ADS-B (KOWD)
Mon 07:52:19 PM 42.1863 -71.5206 218° Southwest 411 473 36,000  Level FlightAware ADS-B (KOWD)
Mon 07:53:11 PM 42.0933 -71.6174 218° Southwest 412 474 36,000  Level FlightAware ADS-B (NHT / EGWU)
Mon 07:53:42 PM 42.0828 -71.6284 218° Southwest 413 475 36,000  Level FlightAware ADS-B (KOWD)
Mon 07:54:12 PM 42.0253 -71.6878 218° Southwest 413 475 36,000  Level FlightAware ADS-B (KOWD)
Mon 07:54:42 PM 41.9686 -71.7467 218° Southwest 413 475 36,000  Level FlightAware ADS-B (KSNC)
Mon 07:55:12 PM 41.8990 -71.8184 218° Southwest 414 476 36,000  Level FlightAware ADS-B (KOWD)
Mon 07:55:42 PM 41.8568 -71.8618 218° Southwest 412 474 36,000  Level FlightAware ADS-B (KOWD)
Mon 07:56:21 PM 41.7901 -71.9304 218° Southwest 411 473 36,000  Level FlightAware ADS-B (KSNC)
Mon 07:56:52 PM 41.7440 -71.9778 218° Southwest 411 473 36,000  Level FlightAware ADS-B (KSNC)
Mon 07:57:27 PM 41.6910 -72.0322 218° Southwest 405 466 36,000  Level FlightAware ADS-B (KASH)
Mon 07:57:33 PM 41.6824 -72.0410 218° Southwest 405 466 36,000  Level FlightAware ADS-B (KASH)
Mon 07:58:03 PM 41.6371 -72.0871 217° Southwest 412 474 36,000 88 Level FlightAware ADS-B
Mon 07:58:41 PM 41.5789 -72.1464 217° Southwest 409 471 36,100  Climbing FlightAware ADS-B (KSNC)
Mon 07:59:12 PM 41.5325 -72.1935 217° Southwest 408 470 36,000 -86 Descending FlightAware ADS-B (KSNC)
Mon 07:59:51 PM 41.4743 -72.2528 217° Southwest 408 470 36,000  Level FlightAware ADS-B (KSNC)
Mon 08:00:22 PM 41.4276 -72.3001 217° Southwest 410 472 36,000  Level FlightAware ADS-B (KSNC)
Mon 08:00:52 PM 41.3828 -72.3455 217° Southwest 411 473 36,000  Level FlightAware ADS-B (KSNC)
Mon 08:01:23 PM 41.3352 -72.3933 217° Southwest 413 475 36,000  Level FlightAware ADS-B (KSNC)
Mon 08:01:54 PM 41.2913 -72.4376 217° Southwest 414 476 36,000  Level FlightAware ADS-B (KSNC)
Mon 08:02:24 PM 41.2474 -72.4817 217° Southwest 415 478 36,000  Level FlightAware ADS-B (KSNC)
Mon 08:02:54 PM 41.1969 -72.5325 217° Southwest 415 478 36,000  Level FlightAware ADS-B (KSNC)
Mon 08:03:33 PM 41.1414 -72.5882 217° Southwest 415 478 36,000  Level FlightAware ADS-B (KSNC)
Mon 08:03:59 PM 41.0962 -72.6334 218° Southwest 410 472 36,000  Level FlightAware ADS-B (KWWD)
Mon 08:04:30 PM 41.0491 -72.6807 218° Southwest 411 473 36,000  Level FlightAware ADS-B (KWWD)
Mon 08:05:04 PM 40.9957 -72.7338 217° Southwest 418 481 36,000 91 Level FlightAware ADS-B (KSNC)
Mon 08:05:36 PM 40.9497 -72.7787 217° Southwest 417 480 36,100  Climbing FlightAware ADS-B (KSNC)
Mon 08:06:06 PM 40.9008 -72.8267 216° Southwest 416 479 36,000 -97 Descending FlightAware ADS-B (KSNC)
Mon 08:06:38 PM 40.8543 -72.8719 217° Southwest 416 479 36,000  Level FlightAware ADS-B (KSNC)
Mon 08:07:13 PM 40.7968 -72.9282 217° Southwest 410 472 36,000  Level FlightAware ADS-B (KWWD)
Mon 08:07:48 PM 40.7414 -72.9824 217° Southwest 417 480 36,000  Level FlightAware ADS-B (KSNC)
Mon 08:08:19 PM 40.6935 -73.0287 216° Southwest 418 481 36,000  Level FlightAware ADS-B
Mon 08:08:49 PM 40.6479 -73.0729 216° Southwest 416 479 36,000  Level FlightAware ADS-B (KSNC)
Mon 08:09:19 PM 40.6014 -73.1180 216° Southwest 416 479 36,000  Level FlightAware ADS-B (KSNC)
Mon 08:09:53 PM 40.5482 -73.1693 216° Southwest 416 479 36,000  Level FlightAware ADS-B (KSNC)
Mon 08:10:03 PM 40.5330 -73.1839 217° Southwest 408 470 36,000  Level FlightAware ADS-B (KWWD)
Mon 08:10:33 PM 40.4868 -73.2282 216° Southwest 415 478 36,000  Level FlightAware ADS-B (KSNC)
Mon 08:11:03 PM 40.4401 -73.2730 216° Southwest 415 478 36,000  Level FlightAware ADS-B (KWWD)
Mon 08:11:33 PM 40.3938 -73.3174 216° Southwest 416 479 36,000  Level FlightAware ADS-B (KWWD)
Mon 08:12:06 PM 40.3430 -73.3661 216° Southwest 416 479 36,000  Level FlightAware ADS-B (KSNC)
Mon 08:12:36 PM 40.2956 -73.4113 216° Southwest 417 480 36,000  Level FlightAware ADS-B (KSNC)
Mon 08:13:07 PM 40.2517 -73.4532 216° Southwest 417 480 36,000  Level FlightAware ADS-B (KSNC)
Mon 08:13:41 PM 40.1931 -73.5090 216° Southwest 417 480 36,000  Level FlightAware ADS-B (KWWD)
Mon 08:14:14 PM 40.1427 -73.5571 216° Southwest 417 480 36,000  Level FlightAware ADS-B (KWWD)
Mon 08:14:48 PM 40.0903 -73.6068 216° Southwest 417 480 36,000  Level FlightAware ADS-B (KSNC)
Mon 08:15:18 PM 40.0417 -73.6495 213° Southwest 420 483 36,000  Level FlightAware ADS-B (KSNC)
Mon 08:15:48 PM 39.9926 -73.6905 213° Southwest 419 482 36,000  Level FlightAware ADS-B (KSNC)
Mon 08:16:32 PM 39.9199 -73.7516 214° Southwest 412 474 36,000  Level FlightAware ADS-B (KWWD)
Mon 08:16:54 PM 39.8834 -73.7826 213° Southwest 417 480 36,000  Level FlightAware ADS-B
Mon 08:17:01 PM 39.8725 -73.7919 213° Southwest 416 479 36,000  Level FlightAware ADS-B (KSNC)
Mon 08:17:41 PM 39.8083 -73.8466 213° Southwest 417 480 36,000  Level FlightAware ADS-B
Mon 08:18:18 PM 39.7488 -73.8968 213° Southwest 417 480 36,000  Level FlightAware ADS-B (KSNC)
Mon 08:18:54 PM 39.6913 -73.9453 213° Southwest 416 479 36,000  Level FlightAware ADS-B (KSNC)
Mon 08:19:24 PM 39.6425 -73.9866 213° Southwest 417 480 36,000  Level FlightAware ADS-B
Mon 08:20:03 PM 39.5782 -74.0406 214° Southwest 411 473 36,000  Level FlightAware ADS-B (KWWD)
Mon 08:20:33 PM 39.5300 -74.0811 213° Southwest 419 482 36,000  Level FlightAware ADS-B (KWWD)
Mon 08:21:04 PM 39.4796 -74.1234 213° Southwest 419 482 36,000  Level FlightAware ADS-B (KWWD)
Mon 08:21:38 PM 39.4707 -74.1308 213° Southwest 419 482 36,000 86 Level FlightAware ADS-B
Mon 08:22:14 PM 39.3652 -74.2190 213° Southwest 419 482 36,100  Climbing FlightAware ADS-B (KWWD)
Mon 08:22:45 PM 39.3169 -74.2596 213° Southwest 418 481 36,000 -75 Descending FlightAware ADS-B (KWWD)
Mon 08:23:34 PM 39.2360 -74.3267 213° Southwest 418 481 36,000  Level FlightAware ADS-B (KWWD)
Mon 08:24:04 PM 39.1866 -74.3679 213° Southwest 419 482 36,000  Level FlightAware ADS-B (KWWD)
Mon 08:24:34 PM 39.1387 -74.4075 213° Southwest 420 483 36,000  Level FlightAware ADS-B (KWWD)
Mon 08:25:14 PM 39.0718 -74.4626 213° Southwest 421 484 36,000  Level FlightAware ADS-B (KWWD)
Mon 08:25:47 PM 39.0179 -74.5071 213° Southwest 421 484 36,000  Level FlightAware ADS-B (KWWD)
Mon 08:26:24 PM 38.9569 -74.5576 213° Southwest 421 484 36,000  Level FlightAware ADS-B (KWWD)
Mon 08:27:14 PM 38.8758 -74.6243 213° Southwest 421 484 36,000  Level FlightAware ADS-B (KWWD)
Mon 08:27:44 PM 38.8270 -74.6644 213° Southwest 422 486 36,000  Level FlightAware ADS-B (KWWD)
Mon 08:28:14 PM 38.7773 -74.7051 213° Southwest 424 488 36,000 98 Level FlightAware ADS-B (KWWD)
Mon 08:28:45 PM 38.7308 -74.7429 213° Southwest 424 488 36,100  Climbing FlightAware ADS-B (BFS / EGAA)
Mon 08:29:29 PM 38.6623 -74.7986 213° Southwest 424 488 36,000 -67 Descending FlightAware ADS-B (BFS / EGAA)
Mon 08:30:15 PM 38.5775 -74.8680 213° Southwest 422 486 36,000  Level FlightAware ADS-B (KWWD)
Mon 08:30:59 PM 38.5118 -74.9210 213° Southwest 423 487 36,000  Level FlightAware ADS-B
Mon 08:32:12 PM 38.4167 -74.9984 212° Southwest 425 489 36,000  Level FlightAware ADS-B (BFS / EGAA)
Mon 08:32:42 PM 38.3328 -75.0660 213° Southwest 422 486 36,000  Level FlightAware ADS-B (KWWD)
Mon 08:33:25 PM 38.2601 -75.1245 213° Southwest 422 486 36,000  Level FlightAware ADS-B (KWWD)
Mon 08:33:28 PM 38.2559 -75.1277 212° Southwest 429 494 36,000  Level FlightAware ADS-B (BFS / EGAA)
Mon 08:33:55 PM 38.2117 -75.1633 212° Southwest 428 493 36,000  Level FlightAware ADS-B (BFS / EGAA)
Mon 08:34:25 PM 38.1605 -75.2043 213° Southwest 423 487 36,000  Level FlightAware ADS-B (KWWD)
Mon 08:34:55 PM 38.1103 -75.2445 212° Southwest 428 493 36,000  Level FlightAware ADS-B (BFS / EGAA)
Mon 08:35:04 PM 38.0946 -75.2568 213° Southwest 422 486 36,000  Level FlightAware ADS-B (KWWD)
Mon 08:35:38 PM 38.0369 -75.3029 212° Southwest 428 493 36,000  Level FlightAware ADS-B (BFS / EGAA)
Mon 08:36:12 PM 37.9807 -75.3479 212° Southwest 428 493 36,000  Level FlightAware ADS-B (BFS / EGAA)
Mon 08:36:38 PM 37.9365 -75.3832 213° Southwest 422 486 36,000  Level FlightAware ADS-B (KWWD)
Mon 08:37:14 PM 37.8768 -75.4304 212° Southwest 429 494 36,000  Level FlightAware ADS-B (BFS / EGAA)
Mon 08:37:20 PM 37.8717 -75.4345 212° Southwest 429 494 36,000  Level FlightAware ADS-B (BFS / EGAA)
Mon 08:37:55 PM 37.8071 -75.4856 213° Southwest 423 487 36,000  Level FlightAware ADS-B (KWWD)
Mon 08:38:32 PM 37.7453 -75.5349 213° Southwest 425 489 36,000  Level FlightAware ADS-B (KWWD)
Mon 08:39:05 PM 37.6892 -75.5790 213° Southwest 424 488 36,000  Level FlightAware ADS-B (KWWD)
Mon 08:39:52 PM 37.6086 -75.6426 213° Southwest 425 489 36,000  Level FlightAware ADS-B (KWWD)
Mon 08:40:31 PM 37.5429 -75.6945 213° Southwest 425 489 36,000  Level FlightAware ADS-B (KWWD)
Mon 08:41:08 PM 37.4807 -75.7433 213° Southwest 424 488 36,000  Level FlightAware ADS-B (KWWD)
Mon 08:41:45 PM 37.4179 -75.7925 213° Southwest 424 488 36,000  Level FlightAware ADS-B (KWWD)
Mon 08:42:24 PM 37.3524 -75.8435 212° Southwest 432 497 36,000  Level FlightAware ADS-B (KWWD)
Mon 08:42:54 PM 37.3012 -75.8835 212° Southwest 433 498 36,000  Level FlightAware ADS-B (KWWD)
Mon 08:43:45 PM 37.2146 -75.9508 212° Southwest 436 502 36,000  Level FlightAware ADS-B (KWWD)
Mon 08:44:15 PM 37.1619 -75.9917 212° Southwest 437 503 36,000  Level FlightAware ADS-B (KWWD)
Mon 08:44:55 PM 37.0933 -76.0448 212° Southwest 437 503 36,000 79 Level FlightAware ADS-B (KWWD)
Mon 08:45:31 PM 37.0307 -76.0934 212° Southwest 437 503 36,100 78 Climbing FlightAware ADS-B (KWWD)
Mon 08:46:12 PM 36.9608 -76.1472 212° Southwest 436 502 36,100 -74 Level FlightAware ADS-B (KWWD)
Mon 08:46:52 PM 36.8914 -76.2012 215° Southwest 428 493 36,000 -83 Descending FlightAware ADS-B (KWWD)
Mon 08:47:24 PM 36.8392 -76.2484 217° Southwest 428 493 36,000  Level FlightAware ADS-B (KWWD)
Mon 08:47:56 PM 36.7927 -76.2913 216° Southwest 437 503 36,000  Level FlightAware ADS-B (KWWD)
Mon 08:48:26 PM 36.7389 -76.3404 216° Southwest 438 504 36,000  Level FlightAware ADS-B (KWWD)
Mon 08:49:06 PM 36.6726 -76.4005 216° Southwest 440 506 36,000  Level FlightAware ADS-B (KWWD)
Mon 08:50:06 PM 36.5743 -76.4896 216° Southwest 442 509 36,000  Level FlightAware ADS-B (KWWD)
Mon 08:50:48 PM 36.5050 -76.5520 216° Southwest 442 509 36,000 65 Level FlightAware ADS-B (KWWD)
Mon 08:51:38 PM 36.4226 -76.6264 216° Southwest 441 507 36,100  Climbing FlightAware ADS-B (KWWD)
Mon 08:52:47 PM 36.3078 -76.7297 216° Southwest 439 505 36,000 -61 Descending FlightAware ADS-B (KWWD)
Mon 08:53:17 PM 36.2584 -76.7742 216° Southwest 440 506 36,000  Level FlightAware ADS-B (KWWD)
Mon 08:53:47 PM 36.2099 -76.8173 216° Southwest 442 509 36,000  Level FlightAware ADS-B (KWWD)
Mon 08:54:36 PM 36.1280 -76.8903 217° Southwest 437 503 36,000 76 Level FlightAware ADS-B (KWWD)
Mon 08:55:06 PM 36.0776 -76.9354 217° Southwest 437 503 36,100  Climbing FlightAware ADS-B (KWWD)
Mon 08:59:07 PM 35.6762 -77.2910 216° Southwest 435 501 36,000 -20 Descending FlightAware ADS-B (KWWD)
Mon 09:00:06 PM 35.5983 -77.3647 216° Southwest 443 510 36,000  Level Washington Center
Mon 09:01:08 PM 35.4947 -77.4492 214° Southwest 443 510 36,000  Level Washington Center
Mon 09:02:05 PM 35.3975 -77.5361 216° Southwest 448 516 36,000  Level Washington Center
Mon 09:03:54 PM 35.2163 -77.7291 222° Southwest 435 501 36,000  Level FlightAware ADS-B (YGEH)
Mon 09:08:48 PM 34.7812 -78.2058 221° Southwest 429 494 36,000  Level FlightAware ADS-B (YGEH)
Mon 09:10:09 PM 34.6717 -78.3311 221° Southwest 445 512 36,000  Level Jacksonville Center
Mon 09:11:09 PM 34.5833 -78.4267 222° Southwest 435 501 36,000  Level Jacksonville Center
Mon 09:12:09 PM 34.4869 -78.5297 221° Southwest 430 495 36,000  Level Jacksonville Center
Mon 09:13:09 PM 34.3964 -78.6275 222° Southwest 435 501 36,000  Level Jacksonville Center
Mon 09:14:09 PM 34.3078 -78.7222 221° Southwest 435 501 36,000  Level Jacksonville Center
Mon 09:15:09 PM 34.2169 -78.8169 221° Southwest 430 495 36,000  Level Jacksonville Center
Mon 09:16:09 PM 34.1283 -78.9114 221° Southwest 430 495 36,000  Level Jacksonville Center
Mon 09:17:09 PM 34.0394 -79.0058 221° Southwest 430 495 36,000  Level Jacksonville Center
Mon 09:18:09 PM 33.9506 -79.0997 221° Southwest 430 495 36,000  Level Jacksonville Center
Mon 09:19:09 PM 33.8594 -79.1939 221° Southwest 430 495 36,000  Level Jacksonville Center
Mon 09:20:09 PM 33.7683 -79.2875 221° Southwest 430 495 36,000  Level Jacksonville Center
Mon 09:21:09 PM 33.6933 -79.3681 222° Southwest 430 495 36,000  Level Jacksonville Center
Mon 09:22:09 PM 33.6042 -79.4614 221° Southwest 421 484 36,000  Level Jacksonville Center
Mon 09:23:09 PM 33.5147 -79.5544 221° Southwest 426 490 36,000  Level Jacksonville Center
Mon 09:24:09 PM 33.4253 -79.6475 221° Southwest 431 496 36,000 -50 Level Jacksonville Center
Mon 09:25:10 PM 33.3358 -79.7403 221° Southwest 431 496 35,900  Descending Jacksonville Center
Mon 09:30:33 PM 32.8365 -80.2534 221° Southwest 439 505 36,000 33 Climbing FlightAware ADS-B
Mon 09:31:13 PM 32.7682 -80.3230 221° Southwest 439 505 36,100  Climbing FlightAware ADS-B
Mon 09:31:52 PM 32.7089 -80.3833 221° Southwest 440 506 36,000  Descending FlightAware ADS-B
Mon 09:32:32 PM 32.6462 -80.4469 221° Southwest 439 505 36,100  Climbing FlightAware ADS-B
Mon 09:33:07 PM 32.5968 -80.4972 221° Southwest 438 504 36,000 -88 Descending FlightAware ADS-B
Mon 09:33:40 PM 32.5415 -80.5530 221° Southwest 437 503 36,000  Level FlightAware ADS-B
Mon 09:35:14 PM 32.4006 -80.6952 221° Southwest 438 504 36,000  Level FlightAware ADS-B
Mon 09:35:53 PM 32.3364 -80.7598 220° Southwest 436 502 36,000  Level FlightAware ADS-B
Mon 09:36:33 PM 32.2822 -80.8141 220° Southwest 436 502 36,000  Level FlightAware ADS-B
Mon 09:37:13 PM 32.2133 -80.8833 221° Southwest 438 504 36,000  Level FlightAware ADS-B
Mon 09:37:52 PM 32.1534 -80.9433 221° Southwest 438 504 36,000  Level FlightAware ADS-B
Mon 09:38:33 PM 32.0901 -81.0065 220° Southwest 438 504 36,000  Level FlightAware ADS-B
Mon 09:39:14 PM 32.0263 -81.0700 220° Southwest 439 505 36,000 75 Level FlightAware ADS-B
Mon 09:39:53 PM 31.9664 -81.1296 220° Southwest 438 504 36,100 -75 Climbing FlightAware ADS-B
Mon 09:40:34 PM 31.9024 -81.1932 220° Southwest 436 502 35,900 -593 Descending FlightAware ADS-B
Mon 09:41:14 PM 31.8409 -81.2543 220° Southwest 433 498 35,300 -684 Descending FlightAware ADS-B
Mon 09:41:53 PM 31.7802 -81.3141 220° Southwest 433 498 35,000 -228 Descending FlightAware ADS-B
Mon 09:42:33 PM 31.7198 -81.3737 220° Southwest 433 498 35,000  Level FlightAware ADS-B
Mon 09:43:12 PM 31.6660 -81.4268 220° Southwest 433 498 35,000  Level FlightAware ADS-B
Mon 09:43:51 PM 31.6144 -81.4776 220° Southwest 432 497 35,000  Level FlightAware ADS-B
Mon 09:44:33 PM 31.5376 -81.5532 220° Southwest 430 495 35,000  Level FlightAware ADS-B
Mon 09:45:13 PM 31.4752 -81.6144 220° Southwest 430 495 35,000  Level FlightAware ADS-B
Mon 09:45:48 PM 31.4212 -81.6672 220° Southwest 432 497 35,000  Level FlightAware ADS-B
Mon 09:46:22 PM 31.3657 -81.7143 206° Southwest 433 498 35,000  Level FlightAware ADS-B
Mon 09:47:12 PM 31.2708 -81.7499 198° South 436 502 35,000  Level FlightAware ADS-B
Mon 09:47:54 PM 31.1902 -81.7802 198° South 437 503 35,000  Level FlightAware ADS-B
Mon 09:49:09 PM 31.0514 -81.8328 198° South 440 506 35,000  Level Jacksonville Center
Mon 09:50:09 PM 30.9328 -81.8803 199° South 440 506 35,000  Level Jacksonville Center
Mon 09:56:12 PM 30.2259 -82.1306 197° South 441 507 35,000 14 Level FlightAware ADS-B
Mon 09:57:15 PM 30.1043 -82.1742 197° South 440 506 35,100 -176 Climbing FlightAware ADS-B
Mon 09:57:54 PM 30.0278 -82.2016 197° South 437 503 34,700 -889 Descending FlightAware ADS-B
Mon 09:58:36 PM 29.9473 -82.2305 197° South 439 505 33,900 -1,556 Descending FlightAware ADS-B
Mon 09:59:15 PM 29.8732 -82.2569 197° South 427 491 32,600 -2,100 Descending FlightAware ADS-B
Mon 09:59:56 PM 29.7953 -82.2845 197° South 423 487 31,100 -2,222 Descending FlightAware ADS-B
Mon 10:00:36 PM 29.7212 -82.3109 197° South 419 482 29,600 -2,231 Descending FlightAware ADS-B
Mon 10:01:14 PM 29.6495 -82.3362 197° South 413 475 28,200 -2,100 Descending FlightAware ADS-B
Mon 10:01:56 PM 29.5732 -82.3565 179° South 405 466 26,800 -1,926 Descending FlightAware ADS-B
Mon 10:02:35 PM 29.5003 -82.3478 174° South 399 459 25,600 -1,350 Descending FlightAware ADS-B
Mon 10:03:16 PM 29.4264 -82.3390 174° South 398 458 25,000 -824 Descending FlightAware ADS-B
Mon 10:04:17 PM 29.3177 -82.3264 174° South 386 444 24,200 -1,307 Descending FlightAware ADS-B
Mon 10:04:57 PM 29.2474 -82.3180 174° South 384 442 22,800 -2,653 Descending FlightAware ADS-B
Mon 10:05:52 PM 29.1438 -82.3057 174° South 395 455 20,000 -3,000 Descending FlightAware ADS-B
Mon 10:06:29 PM 29.0759 -82.2976 174° South 396 456 18,200 -2,475 Descending FlightAware ADS-B
Mon 10:07:12 PM 28.9980 -82.2885 174° South 393 452 16,700 -2,278 Descending FlightAware ADS-B
Mon 10:08:17 PM 28.8819 -82.2745 174° South 385 443 14,100 -2,135 Descending FlightAware ADS-B
Mon 10:08:56 PM 28.8125 -82.2663 174° South 377 434 13,000 -880 Descending FlightAware ADS-B
Mon 10:09:32 PM 28.7697 -82.2612 174° South 334 384 13,000 -375 Level FlightAware ADS-B
Mon 10:10:16 PM 28.6907 -82.2570 179° South 310 357 12,500 -805 Descending FlightAware ADS-B
Mon 10:10:54 PM 28.6386 -82.2563 179° South 310 357 11,900 -889 Descending FlightAware ADS-B
Mon 10:11:37 PM 28.5748 -82.2550 179° South 302 348 11,300 -651 Descending FlightAware ADS-B
Mon 10:12:17 PM 28.5193 -82.2539 179° South 304 350 11,000 -243 Descending FlightAware ADS-B
Mon 10:12:51 PM 28.4726 -82.2534 179° South 301 346 11,000  Level FlightAware ADS-B
Mon 10:13:37 PM 28.4067 -82.2527 179° South 297 342 11,000  Level FlightAware ADS-B
Mon 10:14:11 PM 28.3601 -82.2558 197° South 303 349 11,000  Level FlightAware ADS-B
Mon 10:14:45 PM 28.3325 -82.2697 197° South 303 349 11,000  Level Miami Center
Mon 10:15:45 PM 28.2553 -82.3133 206° Southwest 313 360 11,000 -545 Level Miami Center
Mon 10:16:46 PM 28.1814 -82.3553 207° Southwest 303 349 9,900 -1,328 Descending Miami Center
Mon 10:17:47 PM 28.1089 -82.3981 207° Southwest 300 345 8,300 -1,672 Descending Miami Center
Mon 10:18:48 PM 28.0239 -82.4461 207° Southwest 289 333 6,500 -1,820 Descending Miami Center
Mon 10:19:49 PM 27.9567 -82.4853 207° Southwest 276 318 4,600 -1,672 Descending Miami Center
Mon 10:20:50 PM 27.8947 -82.5231 208° Southwest 261 300 3,100 -992 Descending Miami Center
Mon 10:21:56 PM 27.8333 -82.5833 221° Southwest 213 245 2,500 -476 Descending Tampa TRACON
Mon 10:22:56 PM 27.8167 -82.6333 249° West 180 207 2,100 -526 Descending Tampa TRACON
Mon 10:23:50 PM 27.8333 -82.6667 299° West 161 185 1,500 -789 Descending Tampa TRACON
Mon 10:24:50 PM 27.8667 -82.6833 336° Northwest 134 154 600 -900 Descending Tampa TRACON
Mon 10:27:00 PM 27.9000 -82.6833 North  Level FlightAware Approximate

Login

Don't have an account? Register now (free) for customized features, flight alerts, and more!